CBET5146に続き、中野主一氏(中央局)は、2000年7月29日のLONEOSサーベイで発見された小惑星状
天体(当時、5日間に渡って観測、MPS17842で2000 OZ21と命名され発表された)を、P/2022 M1と
同定した。
2000 OZ21のLONEOSサーベイ発見位置は次のとおり、
2000 UT R.A. (2000) Decl. Mag.
July 29.36467 21 23 13.61 -20 38 37.4 18.4
29.38400 21 23 12.99 -20 38 34.6
29.40332 21 23 12.38 -20 38 34.8
29.42267 21 23 11.67 -20 38 30.5
中野主一氏による連結軌道要素は次のとおり、
Epoch = 2000 Sept.13.0 TT
T = 2000 Sept. 8.47012 TT Peri. = 348.31385
e = 0.5784070 Node = 340.12424 2000.0
q = 2.0886709 AU Incl. = 5.60581
a = 4.9542353 AU n = 0.08937975 P = 11.03 years
Epoch = 2011 Nov. 15.0 TT
T = 2011 Oct. 29.46698 TT Peri. = 350.02942
e = 0.5801646 Node = 339.39820 2000.0
q = 2.0856514 AU Incl. = 5.65049
a = 4.9677836 AU n = 0.08901436 P = 11.07 years
Epoch = 2022 Aug. 9.0 TT
T = 2022 Aug. 2.38037 TT Peri. = 4.46891
e = 0.5783720 Node = 322.92153 2000.0
q = 2.0614042 AU Incl. = 7.02693
a = 4.8891541 AU n = 0.09117032 P = 10.81 years
Epoch = 2033 Mar. 24.0 TT
T = 2033 Mar. 20.19339 TT Peri. = 3.42408
e = 0.5782050 Node = 322.55163 2000.0
q = 2.0518894 AU Incl. = 7.05029
a = 4.8646607 AU n = 0.09185975 P = 10.73 years
Epoch = 2043 Nov. 7.0 TT
T = 2043 Nov. 21.38232 TT Peri. = 2.85247
e = 0.5736797 Node = 321.78013 2000.0
q = 2.0910777 AU Incl. = 6.90617
a = 4.9049452 AU n = 0.09073040 P = 10.86 years
このため、IAUの小天体命名法ワーキンググループは、この彗星の名称を"PANSTARRS" から"LONEOS-
PANSTARRS"と改名した。
(CBET 5166)